Location: Misciano
(43.5000°N, 11.9500°E)
Time: 23:54:42
(UTC+00:00)

Cosmos 972 Rocket - Pass Details

Date: 13 August 2020
Orbit: 713 x 1151 km, 75.8° (Epoch: 23 September)

Event Time Altitude Azimuth Distance (km) Brightness Sun altitude
Rises 18:44:08 0° 339° (NNW) 3,166 8.0 -5.2°
Reaches altitude 10° 18:46:30 10° 336° (NNW) 2,217 7.2 -5.6°
Maximum altitude 18:51:22 64° 256° (WSW) 791 4.4 -6.4°
Drops below altitude 10° 18:56:13 10° 175° (S) 2,213 6.1 -7.1°
Sets 18:58:35 0° 173° (S) 3,159 6.8 -7.5°
